User: anonymous   Login
Location: Fort Wayne
(41.1310°N, 85.1290°W)
Time: 11:32:30
(UTC-05:00)
Language:

Cosmos 1980 - Orbit

View from above orbital plane
View from above orbital plane
View from above satellite
View from above satellite

Ground track
Ground track

The orbit data is extracted from the following two-line orbital elements,

1 19649U 88102A   14353.86690762 -.00000147  00000-0 -51624-4 0  9354
2 19649 070.9988 176.3414 0007675 262.0433 097.9818 14.14572776345832
Epoch (UTC): 19 December 2014 20:48:20
Eccentricity: 0.0007675
inclination: 70.9988°
perigee height: 838 km
apogee height: 849 km
right ascension of ascending node: 176.3414°
argument of perigee: 262.0433°
revolutions per day: 14.14572776
mean anomaly at epoch: 97.9818°
orbit number at epoch: 34583

The dashed part of the orbit path shows where the satellite is in the earth's shadow,  

DLR